Time,TemperatureF,DewpointF,PressureIn,WindDirection,WindDirectionDegrees,WindSpeedMPH,WindSpeedGustMPH,Humidity,HourlyPrecipIn,Conditions,Clouds,dailyrainin,SoftwareType,DateUTC
2013-01-18 00:02:00,23.0,12.0,-100.00,SW,232,2.0,4.0,62,0.00,,,-99.99,,2013-01-18 00:02:00,
2013-01-18 00:12:00,23.0,12.0,-100.00,SW,232,2.0,4.0,63,0.00,,,-99.99,,2013-01-18 00:12:00,
2013-01-18 00:23:00,22.0,12.0,-100.00,SSW,209,2.0,4.0,67,0.00,,,-99.99,,2013-01-18 00:23:00,
2013-01-18 00:32:00,21.0,12.0,-100.00,SSW,212,2.0,4.0,69,0.00,,,-99.99,,2013-01-18 00:32:00,
2013-01-18 00:42:00,19.0,11.0,-100.00,SSW,192,4.0,6.0,71,0.00,,,-99.99,,2013-01-18 00:42:00,
2013-01-18 00:52:00,16.0,8.0,-100.00,South,188,6.0,7.0,72,0.00,,,-99.99,,2013-01-18 00:52:00,
2013-01-18 01:03:00,17.0,10.0,-100.00,South,182,6.0,7.0,73,0.00,,,-99.99,,2013-01-18 01:03:00,
2013-01-18 01:12:00,14.0,6.0,-100.00,South,186,6.0,7.0,70,0.00,,,-99.99,,2013-01-18 01:12:00,
2013-01-18 01:22:00,14.0,8.0,-100.00,SSE,165,4.0,7.0,76,0.00,,,-99.99,,2013-01-18 01:22:00,
2013-01-18 01:33:00,14.0,8.0,-100.00,SSE,167,3.0,4.0,76,0.00,,,-99.99,,2013-01-18 01:33:00,
2013-01-18 01:42:00,14.0,8.0,-100.00,South,188,1.0,4.0,76,0.00,,,-99.99,,2013-01-18 01:42:00,
2013-01-18 01:52:00,13.0,8.0,-100.00,WSW,253,2.0,6.0,80,0.00,,,-99.99,,2013-01-18 01:52:00,
2013-01-18 02:02:00,15.0,9.0,-100.00,SW,230,1.0,2.0,78,0.00,,,-99.99,,2013-01-18 02:02:00,
2013-01-18 02:12:00,14.0,8.0,-100.00,West,263,1.0,3.0,76,0.00,,,-99.99,,2013-01-18 02:12:00,
2013-01-18 02:22:00,15.0,8.0,-100.00,SW,220,3.0,6.0,74,0.00,,,-99.99,,2013-01-18 02:22:00,
2013-01-18 02:32:00,15.0,9.0,-100.00,WSW,257,1.0,3.0,78,0.00,,,-99.99,,2013-01-18 02:32:00,
2013-01-18 02:42:00,15.0,8.0,-100.00,East,86,2.0,6.0,74,0.00,,,-99.99,,2013-01-18 02:42:00,
2013-01-18 02:52:00,15.0,8.0,-100.00,SE,127,1.0,4.0,73,0.00,,,-99.99,,2013-01-18 02:52:00,
2013-01-18 03:02:00,16.0,9.0,-100.00,SE,131,2.0,4.0,75,0.00,,,-99.99,,2013-01-18 03:02:00,
2013-01-18 03:12:00,11.0,6.0,-100.00,ESE,109,1.0,5.0,79,0.00,,,-99.99,,2013-01-18 03:12:00,
2013-01-18 03:22:00,12.0,6.0,-100.00,North,4,1.0,4.0,77,0.00,,,-99.99,,2013-01-18 03:22:00,
2013-01-18 03:33:00,10.0,5.0,-100.00,NNW,335,2.0,6.0,78,0.00,,,-99.99,,2013-01-18 03:33:00,
2013-01-18 03:42:00,12.0,7.0,-100.00,SW,216,3.0,5.0,80,0.00,,,-99.99,,2013-01-18 03:42:00,
2013-01-18 03:52:00,14.0,9.0,-100.00,SSW,203,1.0,4.0,81,0.00,,,-99.99,,2013-01-18 03:52:00,
2013-01-18 04:02:00,11.0,7.0,-100.00,SSW,210,2.0,6.0,84,0.00,,,-99.99,,2013-01-18 04:02:00,
2013-01-18 04:12:00,9.0,4.0,-100.00,SSW,200,4.0,6.0,79,0.00,,,-99.99,,2013-01-18 04:12:00,
2013-01-18 04:22:00,6.0,2.0,-100.00,East,82,3.0,6.0,83,0.00,,,-99.99,,2013-01-18 04:22:00,
2013-01-18 04:32:00,7.0,4.0,-100.00,NW,323,2.0,4.0,87,0.00,,,-99.99,,2013-01-18 04:32:00,
2013-01-18 04:42:00,7.0,3.0,-100.00,SW,215,3.0,7.0,84,0.00,,,-99.99,,2013-01-18 04:42:00,
2013-01-18 04:52:00,9.0,6.0,-100.00,NNW,329,1.0,3.0,85,0.00,,,-99.99,,2013-01-18 04:52:00,
2013-01-18 05:03:00,11.0,8.0,-100.00,WNW,301,1.0,6.0,85,0.00,,,-99.99,,2013-01-18 05:03:00,
2013-01-18 05:12:00,13.0,8.0,-100.00,WSW,247,1.0,4.0,82,0.00,,,-99.99,,2013-01-18 05:12:00,
2013-01-18 05:22:00,11.0,7.0,-100.00,East,96,2.0,4.0,84,0.00,,,-99.99,,2013-01-18 05:22:00,
2013-01-18 05:33:00,9.0,-1.0,-100.00,SW,219,2.0,9.0,64,0.00,,,-99.99,,2013-01-18 05:33:00,
2013-01-18 05:42:00,8.0,5.0,-100.00,NNW,337,3.0,6.0,90,0.00,,,-99.99,,2013-01-18 05:42:00,
2013-01-18 05:52:00,7.0,4.0,-100.00,NNW,328,2.0,7.0,87,0.00,,,-99.99,,2013-01-18 05:52:00,
2013-01-18 06:02:00,9.0,7.0,-100.00,NNE,16,3.0,7.0,92,0.00,,,-99.99,,2013-01-18 06:02:00,
2013-01-18 06:12:00,10.0,6.0,-100.00,ENE,62,2.0,7.0,84,0.00,,,-99.99,,2013-01-18 06:12:00,
2013-01-18 06:22:00,6.0,5.0,-100.00,NE,44,7.0,8.0,93,0.00,,,-99.99,,2013-01-18 06:22:00,
2013-01-18 06:32:00,6.0,3.0,-100.00,NNE,28,7.0,9.0,86,0.00,,,-99.99,,2013-01-18 06:32:00,
2013-01-18 06:43:00,4.0,2.0,-100.00,North,11,9.0,10.0,94,0.00,,,-99.99,,2013-01-18 06:43:00,
2013-01-18 06:52:00,3.0,1.0,-100.00,NE,35,6.0,9.0,89,0.00,,,-99.99,,2013-01-18 06:52:00,
2013-01-18 07:02:00,9.0,6.0,-100.00,NE,37,6.0,8.0,87,0.00,,,-99.99,,2013-01-18 07:02:00,
2013-01-18 07:12:00,7.0,4.0,-100.00,NE,45,6.0,7.0,89,0.00,,,-99.99,,2013-01-18 07:12:00,
2013-01-18 07:22:00,14.0,13.0,-100.00,NE,49,5.0,7.0,96,0.00,,,-99.99,,2013-01-18 07:22:00,
2013-01-18 07:32:00,8.0,4.0,-100.00,East,92,2.0,6.0,83,0.00,,,-99.99,,2013-01-18 07:32:00,
2013-01-18 07:42:00,7.0,4.0,-100.00,ENE,72,2.0,6.0,87,0.00,,,-99.99,,2013-01-18 07:42:00,
2013-01-18 07:52:00,10.0,6.0,-100.00,ESE,103,2.0,4.0,81,0.00,,,-99.99,,2013-01-18 07:52:00,
2013-01-18 08:02:00,9.0,4.0,-100.00,SE,145,2.0,6.0,79,0.00,,,-99.99,,2013-01-18 08:02:00,
2013-01-18 08:12:00,8.0,3.0,-100.00,SE,130,2.0,6.0,80,0.00,,,-99.99,,2013-01-18 08:12:00,
2013-01-18 08:22:00,8.0,3.0,-100.00,East,97,2.0,4.0,79,0.00,,,-99.99,,2013-01-18 08:22:00,
2013-01-18 08:32:00,6.0,3.0,-100.00,SW,216,3.0,7.0,88,0.00,,,-99.99,,2013-01-18 08:32:00,
2013-01-18 08:42:00,7.0,5.0,-100.00,North,356,4.0,11.0,90,0.00,,,-99.99,,2013-01-18 08:42:00,
2013-01-18 08:52:00,10.0,6.0,-100.00,NW,313,2.0,9.0,85,0.00,,,-99.99,,2013-01-18 08:52:00,
2013-01-18 09:02:00,7.0,3.0,-100.00,North,356,2.0,6.0,84,0.00,,,-99.99,,2013-01-18 09:02:00,
2013-01-18 09:12:00,9.0,4.0,-100.00,ENE,76,2.0,4.0,83,0.00,,,-99.99,,2013-01-18 09:12:00,
2013-01-18 09:22:00,10.0,4.0,-100.00,SE,126,4.0,8.0,75,0.00,,,-99.99,,2013-01-18 09:22:00,
2013-01-18 09:33:00,9.0,0.0,-100.00,SE,137,4.0,8.0,65,0.00,,,-99.99,,2013-01-18 09:33:00,
2013-01-18 09:42:00,9.0,-1.0,-100.00,SSE,164,3.0,7.0,63,0.00,,,-99.99,,2013-01-18 09:42:00,
2013-01-18 09:52:00,17.0,0.0,-100.00,South,169,4.0,7.0,48,0.00,,,-99.99,,2013-01-18 09:52:00,
2013-01-18 10:02:00,8.0,1.0,-100.00,ESE,119,4.0,8.0,75,0.00,,,-99.99,,2013-01-18 10:02:00,
2013-01-18 10:12:00,9.0,0.0,-100.00,SSW,205,2.0,9.0,66,0.00,,,-99.99,,2013-01-18 10:12:00,
2013-01-18 10:22:00,10.0,3.0,-100.00,NW,306,2.0,6.0,73,0.00,,,-99.99,,2013-01-18 10:22:00,
2013-01-18 10:32:00,10.0,1.0,-100.00,SW,229,2.0,7.0,68,0.00,,,-99.99,,2013-01-18 10:32:00,
2013-01-18 10:42:00,12.0,0.0,-100.00,SW,222,2.0,7.0,57,0.00,,,-99.99,,2013-01-18 10:42:00,
2013-01-18 10:52:00,9.0,-2.0,-100.00,SSE,154,4.0,7.0,58,0.00,,,-99.99,,2013-01-18 10:52:00,
2013-01-18 11:02:00,8.0,1.0,-100.00,NNE,32,2.0,6.0,70,0.00,,,-99.99,,2013-01-18 11:02:00,
2013-01-18 11:12:00,13.0,3.0,-100.00,NW,304,2.0,8.0,62,0.00,,,-99.99,,2013-01-18 11:12:00,
2013-01-18 11:22:00,8.0,0.0,-100.00,NNW,344,3.0,9.0,72,0.00,,,-99.99,,2013-01-18 11:22:00,
2013-01-18 11:32:00,19.0,1.0,-100.00,NW,315,3.0,6.0,45,0.00,,,-99.99,,2013-01-18 11:32:00,
2013-01-18 11:42:00,22.0,2.0,-100.00,WSW,243,6.0,9.0,42,0.00,,,-99.99,,2013-01-18 11:42:00,
2013-01-18 11:52:00,21.0,2.0,-100.00,SW,226,6.0,9.0,44,0.00,,,-99.99,,2013-01-18 11:52:00,
2013-01-18 12:02:00,22.0,3.0,-100.00,SSW,206,12.0,14.0,44,0.00,,,-99.99,,2013-01-18 12:02:00,
2013-01-18 12:12:00,22.0,4.0,-100.00,SSW,205,14.0,19.0,44,0.00,,,-99.99,,2013-01-18 12:12:00,
2013-01-18 12:22:00,22.0,4.0,-100.00,SSW,203,13.0,16.0,45,0.00,,,-99.99,,2013-01-18 12:22:00,
2013-01-18 12:33:00,24.0,4.0,-100.00,SSW,206,12.0,15.0,42,0.00,,,-99.99,,2013-01-18 12:33:00,
2013-01-18 12:42:00,23.0,4.0,-100.00,SW,215,11.0,14.0,43,0.00,,,-99.99,,2013-01-18 12:42:00,
2013-01-18 12:52:00,27.0,3.0,-100.00,SSW,212,11.0,15.0,34,0.00,,,-99.99,,2013-01-18 12:52:00,
2013-01-18 13:03:00,26.0,3.0,-100.00,SSW,212,8.0,11.0,36,0.00,,,-99.99,,2013-01-18 13:03:00,
2013-01-18 13:12:00,25.0,4.0,-100.00,SSW,212,7.0,11.0,39,0.00,,,-99.99,,2013-01-18 13:12:00,
2013-01-18 13:23:00,20.0,5.0,-100.00,SSW,206,12.0,17.0,51,0.00,,,-99.99,,2013-01-18 13:23:00,
2013-01-18 13:33:00,23.0,5.0,-100.00,SSW,209,14.0,21.0,46,0.00,,,-99.99,,2013-01-18 13:33:00,
2013-01-18 13:43:00,23.0,5.0,-100.00,SSW,209,16.0,20.0,46,0.00,,,-99.99,,2013-01-18 13:43:00,
2013-01-18 13:53:00,24.0,5.0,-100.00,SSW,205,14.0,17.0,45,0.00,,,-99.99,,2013-01-18 13:53:00,
2013-01-18 14:03:00,25.0,6.0,-100.00,SSW,203,15.0,21.0,44,0.00,,,-99.99,,2013-01-18 14:03:00,
2013-01-18 14:12:00,26.0,6.0,-100.00,SSW,208,14.0,22.0,41,0.00,,,-99.99,,2013-01-18 14:12:00,
2013-01-18 14:22:00,25.0,7.0,-100.00,SW,217,14.0,21.0,45,0.00,,,-99.99,,2013-01-18 14:22:00,
2013-01-18 14:33:00,27.0,6.0,-100.00,SSW,206,17.0,23.0,42,0.00,,,-99.99,,2013-01-18 14:33:00,
2013-01-18 14:42:00,26.0,6.0,-100.00,SSW,209,14.0,19.0,42,0.00,,,-99.99,,2013-01-18 14:42:00,
2013-01-18 14:53:00,27.0,6.0,-100.00,SSW,213,14.0,18.0,40,0.00,,,-99.99,,2013-01-18 14:53:00,
2013-01-18 15:03:00,27.0,6.0,-100.00,SW,216,11.0,16.0,41,0.00,,,-99.99,,2013-01-18 15:03:00,
2013-01-18 15:12:00,23.0,6.0,-100.00,WSW,257,5.0,13.0,47,0.00,,,-99.99,,2013-01-18 15:12:00,
2013-01-18 15:23:00,27.0,7.0,-100.00,WSW,250,9.0,21.0,41,0.00,,,-99.99,,2013-01-18 15:23:00,
2013-01-18 15:33:00,28.0,7.0,-100.00,SW,216,16.0,21.0,40,0.00,,,-99.99,,2013-01-18 15:33:00,
2013-01-18 15:43:00,27.0,7.0,-100.00,SW,217,16.0,21.0,41,0.00,,,-99.99,,2013-01-18 15:43:00,
2013-01-18 15:53:00,27.0,7.0,-100.00,SW,215,20.0,26.0,43,0.00,,,-99.99,,2013-01-18 15:53:00,
2013-01-18 16:03:00,27.0,8.0,-100.00,SSW,205,22.0,29.0,43,0.00,,,-99.99,,2013-01-18 16:03:00,
2013-01-18 16:12:00,26.0,9.0,-100.00,SSW,205,21.0,29.0,48,0.00,,,-99.99,,2013-01-18 16:12:00,
2013-01-18 16:23:00,27.0,10.0,-100.00,SSW,196,17.0,24.0,49,0.00,,,-99.99,,2013-01-18 16:23:00,
2013-01-18 16:33:00,28.0,10.0,-100.00,SSW,200,16.0,21.0,47,0.00,,,-99.99,,2013-01-18 16:33:00,
2013-01-18 16:42:00,28.0,11.0,-100.00,SSW,205,14.0,18.0,48,0.00,,,-99.99,,2013-01-18 16:42:00,
2013-01-18 16:52:00,34.0,9.0,-100.00,SW,224,21.0,26.0,36,0.00,,,-99.99,,2013-01-18 16:52:00,
2013-01-18 17:03:00,34.0,11.0,-100.00,SW,224,22.0,29.0,38,0.00,,,-99.99,,2013-01-18 17:03:00,
2013-01-18 17:13:00,35.0,11.0,-100.00,SW,229,22.0,29.0,37,0.00,,,-99.99,,2013-01-18 17:13:00,
2013-01-18 17:23:00,34.0,10.0,-100.00,SW,230,24.0,34.0,36,0.00,,,-99.99,,2013-01-18 17:23:00,
2013-01-18 17:33:00,35.0,10.0,-100.00,SW,229,24.0,32.0,35,0.00,,,-99.99,,2013-01-18 17:33:00,
2013-01-18 17:42:00,35.0,11.0,-100.00,SW,226,27.0,37.0,37,0.00,,,-99.99,,2013-01-18 17:42:00,
2013-01-18 17:53:00,36.0,9.0,-100.00,SW,232,25.0,29.0,32,0.00,,,-99.99,,2013-01-18 17:53:00,
2013-01-18 18:03:00,36.0,11.0,-100.00,SW,226,26.0,35.0,36,0.00,,,-99.99,,2013-01-18 18:03:00,
2013-01-18 18:12:00,36.0,11.0,-100.00,SW,224,28.0,35.0,35,0.00,,,-99.99,,2013-01-18 18:12:00,
2013-01-18 18:23:00,36.0,17.0,-100.00,SW,222,22.0,33.0,44,0.00,,,-99.99,,2013-01-18 18:23:00,
2013-01-18 18:33:00,38.0,13.0,-100.00,SW,234,16.0,25.0,35,0.00,,,-99.99,,2013-01-18 18:33:00,
2013-01-18 18:43:00,39.0,12.0,-100.00,WSW,244,19.0,26.0,32,0.00,,,-99.99,,2013-01-18 18:43:00,
2013-01-18 18:52:00,38.0,14.0,-100.00,WSW,248,18.0,29.0,37,0.00,,,-99.99,,2013-01-18 18:52:00,
2013-01-18 19:03:00,39.0,11.0,-100.00,WSW,250,22.0,32.0,31,0.00,,,-99.99,,2013-01-18 19:03:00,
2013-01-18 19:12:00,40.0,9.0,-100.00,WSW,246,23.0,32.0,28,0.00,,,-99.99,,2013-01-18 19:12:00,
2013-01-18 19:22:00,40.0,14.0,-100.00,WSW,240,15.0,23.0,33,0.00,,,-99.99,,2013-01-18 19:22:00,
2013-01-18 19:33:00,39.0,18.0,-100.00,SW,230,15.0,20.0,41,0.00,,,-99.99,,2013-01-18 19:33:00,
2013-01-18 19:42:00,40.0,14.0,-100.00,SW,226,17.0,24.0,34,0.00,,,-99.99,,2013-01-18 19:42:00,
2013-01-18 19:52:00,40.0,16.0,-100.00,SW,230,17.0,23.0,37,0.00,,,-99.99,,2013-01-18 19:52:00,
2013-01-18 20:03:00,40.0,14.0,-100.00,SW,236,15.0,19.0,34,0.00,,,-99.99,,2013-01-18 20:03:00,
2013-01-18 20:12:00,40.0,11.0,-100.00,SW,236,16.0,23.0,30,0.00,,,-99.99,,2013-01-18 20:12:00,
2013-01-18 20:23:00,41.0,13.0,-100.00,SW,233,18.0,24.0,31,0.00,,,-99.99,,2013-01-18 20:23:00,
2013-01-18 20:33:00,40.0,14.0,-100.00,WSW,246,15.0,22.0,33,0.00,,,-99.99,,2013-01-18 20:33:00,
2013-01-18 20:42:00,41.0,10.0,-100.00,WSW,240,18.0,29.0,28,0.00,,,-99.99,,2013-01-18 20:42:00,
2013-01-18 20:52:00,41.0,9.0,-100.00,WSW,240,22.0,33.0,27,0.00,,,-99.99,,2013-01-18 20:52:00,
2013-01-18 21:03:00,41.0,11.0,-100.00,WSW,240,19.0,26.0,29,0.00,,,-99.99,,2013-01-18 21:03:00,
2013-01-18 21:12:00,41.0,8.0,-100.00,WSW,241,18.0,24.0,25,0.00,,,-99.99,,2013-01-18 21:12:00,
2013-01-18 21:22:00,41.0,13.0,-100.00,WSW,240,18.0,26.0,32,0.00,,,-99.99,,2013-01-18 21:22:00,
2013-01-18 21:33:00,41.0,11.0,-100.00,WSW,241,22.0,29.0,28,0.00,,,-99.99,,2013-01-18 21:33:00,
2013-01-18 21:42:00,40.0,13.0,-100.00,SW,236,22.0,29.0,33,0.00,,,-99.99,,2013-01-18 21:42:00,
2013-01-18 21:52:00,40.0,12.0,-100.00,SW,230,24.0,32.0,31,0.00,,,-99.99,,2013-01-18 21:52:00,
2013-01-18 22:03:00,39.0,13.0,-100.00,WSW,237,24.0,32.0,34,0.00,,,-99.99,,2013-01-18 22:03:00,
2013-01-18 22:12:00,40.0,11.0,-100.00,WSW,240,21.0,28.0,31,0.00,,,-99.99,,2013-01-18 22:12:00,
2013-01-18 22:22:00,40.0,11.0,-100.00,WSW,243,19.0,27.0,31,0.00,,,-99.99,,2013-01-18 22:22:00,
2013-01-18 22:32:00,40.0,12.0,-100.00,WSW,239,19.0,24.0,32,0.00,,,-99.99,,2013-01-18 22:32:00,
2013-01-18 22:42:00,39.0,12.0,-100.00,SW,233,19.0,26.0,33,0.00,,,-99.99,,2013-01-18 22:42:00,
2013-01-18 22:52:00,37.0,14.0,-100.00,SW,226,17.0,21.0,38,0.00,,,-99.99,,2013-01-18 22:52:00,
2013-01-18 23:03:00,36.0,15.0,-100.00,SW,223,20.0,23.0,42,0.00,,,-99.99,,2013-01-18 23:03:00,
2013-01-18 23:12:00,37.0,13.0,-100.00,SW,219,20.0,23.0,37,0.00,,,-99.99,,2013-01-18 23:12:00,
2013-01-18 23:22:00,37.0,14.0,-100.00,SW,223,19.0,25.0,38,0.00,,,-99.99,,2013-01-18 23:22:00,
2013-01-18 23:33:00,37.0,14.0,-100.00,SW,229,18.0,23.0,37,0.00,,,-99.99,,2013-01-18 23:33:00,
2013-01-18 23:42:00,35.0,14.0,-100.00,SW,220,17.0,22.0,42,0.00,,,-99.99,,2013-01-18 23:42:00,
2013-01-18 23:52:00,36.0,11.0,-100.00,SW,220,15.0,19.0,35,0.00,,,-99.99,,2013-01-18 23:52:00,